Location: Bayshore Village Mobile Home Park
(26.6945°N, 81.8642°W)
Time: 21:52:33
(UTC+00:00)

Cosmos 1805 - Pass Details

Date: 17 June 2021
Orbit: 524 x 529 km, 82.5° (Epoch: 31 July)

Event Time Altitude Azimuth Distance (km) Brightness Sun altitude
Rises 01:19:08 0° 355° (N) 2,657 7.4 -11.7°
Reaches altitude 10° 01:21:17 10° 356° (N) 1,766 6.5 -12.1°
Maximum altitude 01:25:10 84° 82° (E) 532 3.1 -12.8°
Enters shadow 01:28:51 11° 173° (S) 1,685 5.4 -13.5°
